Wind_Speed
31 32 33 34 34 32 30 27 27 27 26 24 23 22 21 20 19 19 19 19 18 18 19 18 17 18 18 18 16 15 15 15 15 14 13 13 12 12 11 10 10 9 8 8 7 7 6 5 4 3 2 2 2 2 1 0 1 1 1 2 3 3 4 4 5 5 5 5 6
31 32 33 33 33 31 27 25 26 25 23 22 22 22 21 21 20 19 19 19 18 19 19 18 18 19 19 18 16 16 16 16 16 15 14 13 12 11 11 10 9 9 8 7 7 6 5 5 4 3 2 2 2 2 1 0 1 2 2 3 3 3 4 4 5 5 5 5 5
32 32 33 32 31 29 26 24 24 23 22 22 22 22 21 21 20 19 19 19 19 19 19 19 20 20 19 18 17 17 17 16 16 15 14 13 12 11 11 10 9 8 8 7 6 6 5 4 3 3 2 1 1 1 1 0 1 2 2 3 3 3 4 4 4 5 5 5 5
32 33 32 31 30 28 25 24 24 24 24 23 23 22 21 20 20 20 20 20 20 20 20 21 21 21 20 18 17 17 17 16 16 15 14 13 12 11 10 10 9 8 7 7 6 5 5 4 3 2 2 2 1 1 1 0 1 2 2 3 3 3 4 4 4 4 4 4 5
32 32 31 30 29 27 25 24 25 25 25 24 24 23 21 20 21 21 21 21 21 21 22 22 22 21 20 19 18 17 17 16 15 15 14 13 12 11 10 9 8 8 7 6 5 4 4 3 2 2 2 2 1 1 1 1 1 2 2 3 3 3 4 4 4 4 4 5 5
31 30 29 28 27 25 24 24 25 25 25 24 24 23 21 21 22 22 22 22 22 22 23 23 22 21 20 19 18 18 17 16 15 15 14 13 12 11 10 9 8 7 6 5 4 3 3 3 2 2 1 1 1 1 1 1 1 2 3 3 3 4 4 4 4 4 5 5 6
30 28 27 26 25 24 23 24 25 25 24 24 24 23 22 22 23 23 24 24 24 24 23 23 22 21 19 19 18 18 18 17 16 14 14 13 12 11 10 9 8 6 5 4 3 3 3 3 2 2 1 1 1 1 1 2 2 2 3 3 4 4 4 4 5 5 5 6 6
28 27 26 26 25 24 24 25 25 24 24 23 23 23 23 24 24 24 25 25 25 24 24 23 22 21 20 19 19 18 18 17 16 14 13 13 12 11 10 9 8 6 5 4 4 3 3 2 2 2 2 1 1 1 2 2 2 2 3 4 4 4 4 4 5 5 6 6 7
26 24 24 24 23 23 24 25 25 24 23 23 23 24 24 25 26 26 25 25 25 25 24 23 22 20 19 19 19 18 17 16 15 14 13 13 12 11 10 9 7 6 5 4 4 3 2 2 2 2 2 1 1 2 2 3 3 3 3 4 4 4 4 5 5 6 6 7 7
24 23 23 23 23 23 24 24 24 24 23 23 24 25 26 27 27 26 26 26 26 25 24 23 21 20 19 18 18 18 17 16 15 14 13 12 11 10 9 8 7 6 5 4 3 3 2 2 2 2 2 1 2 2 3 3 3 3 4 4 4 5 5 6 6 6 7 7 8
24 23 23 23 23 24 24 24 23 23 23 24 26 26 27 27 27 26 26 26 25 24 23 22 21 19 18 18 18 17 17 16 15 14 13 12 11 10 9 8 7 6 5 4 3 3 2 2 2 2 2 2 2 3 3 3 3 4 4 5 5 5 6 6 6 6 7 7 8
24 23 23 24 25 25 25 24 23 24 25 27 27 27 27 26 26 26 27 26 25 23 22 21 20 19 18 18 17 17 16 15 15 14 13 12 11 10 9 8 7 6 5 4 3 2 2 2 2 2 2 2 2 3 3 3 4 4 5 5 5 6 6 6 6 6 7 7 8
24 24 24 25 25 25 25 24 24 26 27 28 28 27 26 25 26 26 26 25 24 23 22 20 19 18 18 18 17 16 16 15 14 13 12 12 11 10 9 8 7 6 5 3 2 2 2 2 2 2 2 2 3 3 3 4 4 5 5 6 6 6 7 7 7 7 7 8 8
24 24 25 26 26 25 25 25 26 27 28 29 28 27 26 25 25 26 25 24 23 22 21 19 18 17 17 17 17 16 15 15 14 13 12 11 10 9 8 7 6 5 4 3 2 2 2 2 2 2 2 2 3 3 3 4 5 5 5 6 6 7 7 7 7 7 8 8 9
24 25 26 26 26 25 25 26 27 28 28 28 28 27 26 25 25 25 24 23 23 22 21 19 18 17 17 16 16 16 15 14 13 12 11 10 9 8 7 6 5 4 3 2 1 1 1 2 2 2 2 2 3 4 4 4 5 5 6 6 7 7 7 7 8 8 8 9 9
25 25 26 26 26 26 26 27 27 28 28 28 28 27 26 25 24 24 23 23 22 21 20 19 18 17 17 16 15 15 14 13 12 11 10 9 9 8 7 6 5 4 3 2 1 1 1 1 1 2 2 3 3 4 4 5 5 6 6 7 7 7 8 8 8 8 8 9 10
25 26 26 26 26 26 27 27 27 27 28 28 27 27 26 25 24 23 23 22 21 20 19 19 19 18 17 16 15 14 13 13 12 11 10 9 8 7 6 5 4 4 3 2 2 2 2 1 2 2 3 3 4 4 5 5 6 6 7 7 7 8 8 8 8 8 9 9 10
25 26 26 26 26 27 27 28 28 28 28 28 27 26 25 25 24 23 22 21 21 20 20 19 19 18 17 16 15 14 13 12 11 10 9 8 8 7 6 5 4 3 3 3 2 2 2 2 2 3 3 4 4 5 5 6 6 7 7 7 8 8 9 9 9 9 9 10 11
25 26 25 25 26 27 28 29 29 29 29 28 27 26 25 25 24 23 22 21 20 21 20 20 19 18 17 16 15 13 12 11 10 10 9 8 7 7 5 4 3 2 2 2 2 2 2 2 3 3 4 4 5 5 6 6 7 7 8 8 8 9 9 9 9 9 10 10 11
26 25 25 26 27 28 29 29 29 29 28 27 26 25 24 24 23 22 21 21 20 21 20 20 18 17 16 15 14 13 12 11 10 10 9 8 7 6 5 3 3 2 2 2 1 1 1 2 3 4 4 5 6 6 7 7 8 8 8 8 9 9 9 9 10 10 10 11 11
25 25 25 27 28 29 29 29 29 28 28 27 26 25 24 23 22 22 21 21 21 20 19 19 18 17 16 15 14 13 12 11 10 9 8 7 6 5 4 3 3 2 2 1 1 1 2 3 3 4 5 6 6 7 7 8 8 9 9 9 9 10 10 10 10 11 11 11 12
24 25 26 28 29 29 29 29 28 28 27 26 25 25 24 23 22 21 21 21 20 19 18 18 17 16 15 14 13 13 12 11 10 8 7 6 6 5 4 3 3 3 2 1 0 1 2 3 4 5 5 6 7 8 8 9 9 9 10 10 10 10 10 10 11 11 11 12 12
25 26 27 28 29 29 29 29 28 27 26 25 25 24 23 23 22 21 21 20 19 18 17 17 16 16 15 14 13 12 11 10 9 8 6 6 5 4 4 4 4 3 2 1 1 2 2 3 4 5 6 6 7 8 8 9 10 10 11 11 11 11 11 11 11 11 12 12 12
27 28 28 29 29 29 29 29 28 27 26 25 24 24 23 22 22 21 20 19 18 18 17 16 16 15 14 13 12 11 10 9 8 7 6 5 4 4 4 4 3 2 1 1 2 2 1 2 3 4 5 6 7 8 8 9 10 11 11 11 11 11 11 11 12 12 12 12 12
28 29 29 29 29 29 29 28 28 27 26 25 24 24 23 22 21 20 19 18 18 17 17 16 16 15 14 12 11 10 9 8 7 6 5 5 4 4 4 3 3 2 2 2 2 2 2 1 2 4 5 6 7 8 9 9 10 11 11 11 12 12 12 12 12 12 12 12 12
28 29 29 29 29 28 28 28 27 27 26 25 24 23 22 21 21 20 19 18 17 17 17 16 15 14 13 12 11 10 9 8 7 6 5 5 4 4 3 3 3 2 2 3 3 3 2 2 3 4 5 7 7 8 9 10 10 11 11 11 12 12 12 12 12 12 12 12 12
28 28 28 28 28 28 27 27 27 26 25 25 24 23 22 21 20 19 19 18 17 17 16 15 15 13 12 11 10 9 8 7 7 6 5 5 4 3 3 3 3 1 3 4 4 3 3 3 3 5 6 7 8 9 9 10 11 11 12 12 12 12 12 12 12 12 12 12 12
28 28 28 28 27 27 26 26 26 25 25 24 23 22 21 20 19 19 18 18 17 16 15 15 14 13 12 11 10 9 8 7 6 6 5 4 4 3 3 3 2 2 3 4 4 4 3 3 4 5 6 7 8 9 10 11 11 11 11 11 11 11 11 12 12 12 12 12 12
28 28 28 27 27 26 25 25 24 24 24 23 23 22 21 20 19 18 18 17 16 15 14 13 13 12 11 10 9 8 7 6 6 5 5 4 3 3 3 2 2 2 3 5 5 4 4 4 5 5 6 7 8 9 10 11 11 11 11 11 11 11 11 12 12 12 12 12 13
27 28 28 27 26 25 24 24 24 23 23 23 22 21 20 19 18 17 17 16 15 14 13 13 12 11 10 10 9 8 7 6 5 5 4 3 3 2 2 2 2 2 4 5 5 5 4 5 5 6 7 8 9 10 10 11 11 12 12 12 12 12 12 12 12 13 13 13 13
27 27 27 26 25 24 24 23 23 23 22 22 21 20 19 18 17 16 16 15 14 13 13 12 11 11 10 9 8 7 6 5 5 4 4 3 3 2 2 2 2 2 4 6 6 6 5 6 6 7 8 9 10 10 11 11 12 12 12 12 12 12 12 12 12 12 12 13 13
26 26 26 25 25 24 23 23 22 22 21 21 20 19 18 17 16 16 15 14 14 13 12 11 11 10 9 8 7 6 6 5 5 4 3 3 2 2 1 2 2 2 5 7 8 7 7 6 7 7 8 9 11 11 12 12 12 12 12 12 12 12 12 12 12 12 13 13 13
25 25 25 25 24 24 23 22 22 21 21 20 19 18 18 17 17 16 15 14 13 12 11 11 10 9 9 8 7 6 5 5 4 3 3 2 1 1 1 2 2 3 6 8 9 8 8 7 7 8 9 10 11 12 12 12 12 12 12 12 12 12 12 12 13 13 13 13 13
24 25 25 25 24 23 22 22 21 21 20 19 18 18 18 17 17 16 15 13 12 11 11 10 10 9 8 8 7 6 5 4 3 2 2 1 1 0 1 1 2 4 7 9 10 10 9 8 8 9 10 11 11 11 12 12 12 12 12 12 12 12 12 12 12 12 13 12 12
24 24 24 24 23 23 22 21 21 20 20 19 18 18 18 17 16 15 14 13 12 11 11 10 9 9 8 7 6 5 5 4 3 2 1 0 0 1 1 2 2 5 8 10 11 11 10 9 9 9 10 11 11 11 11 12 12 12 12 12 12 12 12 12 12 12 12 11 11
24 24 24 24 23 22 21 21 20 20 19 19 18 18 17 16 15 14 13 12 12 11 11 10 9 8 8 7 6 5 4 3 3 2 1 0 1 1 2 2 2 5 8 10 11 11 11 10 9 10 11 11 11 11 11 11 11 11 12 12 12 12 12 12 12 11 11 10 10
23 24 24 23 22 21 21 20 20 20 19 18 18 17 16 15 14 13 12 12 11 11 10 9 8 8 7 6 5 4 3 3 2 1 1 1 1 2 3 3 3 4 7 10 11 12 11 10 10 10 11 11 11 11 11 11 11 11 11 11 11 11 11 11 11 10 9 9 10
23 23 23 22 22 21 20 20 20 19 19 18 18 17 16 15 14 13 12 11 11 10 10 8 8 7 6 5 4 3 2 2 1 1 1 1 2 3 4 4 4 4 6 8 11 12 11 11 10 10 11 11 11 11 11 11 11 11 11 11 11 11 11 10 10 10 10 11 12
22 22 22 22 22 21 20 20 19 19 19 18 17 16 15 14 14 13 12 11 10 10 9 8 7 6 5 4 3 2 1 0 0 0 1 1 3 4 5 5 5 5 5 8 10 11 11 11 10 10 11 11 11 11 11 11 11 11 11 11 11 10 10 10 10 11 12 13 14
22 22 22 22 21 21 20 20 19 19 18 18 16 15 15 14 14 13 12 10 9 8 7 7 6 5 4 4 3 3 2 1 1 2 2 3 4 6 6 6 5 5 6 7 9 10 10 10 10 10 11 11 10 10 10 10 11 11 11 10 10 10 10 11 11 12 13 14 14
22 22 21 21 21 20 20 19 19 18 18 17 16 15 15 14 14 13 12 10 9 7 7 6 5 4 4 3 3 2 2 2 1 2 3 4 5 5 6 5 5 5 6 6 7 8 9 10 10 10 10 10 10 10 10 10 10 10 10 10 10 11 11 12 13 13 13 14 14
Wind_Direction
159 158 157 156 155 153 153 154 155 154 153 152 153 155 158 160 160 160 159 157 155 155 158 162 163 161 158 157 157 157 156 155 153 149 146 142 140 139 139 138 137 134 132 132 131 131 131 129 123 109 96 97 118 141 146 62 9 341 311 295 291 291 292 291 289 288 287 285 282
157 157 157 156 155 154 153 154 156 155 154 153 154 156 159 160 160 159 157 156 155 156 158 160 160 158 155 155 156 157 156 154 151 148 145 142 140 140 140 139 138 137 135 134 134 133 132 131 128 123 111 100 128 148 160 222 340 330 309 293 289 289 289 288 286 286 288 288 286
156 156 156 156 155 155 154 155 156 156 155 155 155 157 158 159 158 156 155 155 155 155 156 157 156 154 153 154 156 157 155 153 151 148 145 142 141 141 141 142 142 141 139 139 137 135 133 135 135 136 134 130 146 153 158 217 322 319 303 290 287 286 285 283 285 286 287 287 288
156 157 157 157 157 157 156 156 157 157 156 155 155 156 157 157 155 154 153 153 154 155 155 154 153 152 153 155 156 156 154 152 150 148 145 143 142 143 144 145 146 146 145 144 141 138 135 138 139 138 143 148 152 149 155 235 300 300 288 280 276 275 277 278 281 283 284 285 287
157 158 159 159 159 158 157 156 156 156 156 155 155 156 156 154 153 153 152 153 154 155 155 153 151 152 154 156 155 154 153 152 150 147 145 143 143 145 146 147 149 149 150 149 145 140 136 138 138 139 143 147 148 151 169 268 290 284 274 269 263 264 269 273 278 279 282 283 286
158 159 160 160 159 157 156 155 155 155 155 155 155 156 156 155 154 153 153 153 154 154 153 152 152 153 154 154 154 153 153 152 151 148 145 144 145 146 148 150 152 153 152 149 144 134 130 139 144 147 150 159 154 169 215 280 289 283 272 263 260 259 263 270 275 278 280 282 288
159 158 158 158 158 156 154 154 154 155 154 155 157 157 156 156 155 154 154 154 153 152 152 152 152 153 153 153 153 154 154 153 150 148 146 146 147 149 151 153 154 154 152 147 140 132 133 143 152 157 164 174 169 181 227 276 291 289 276 267 262 259 262 269 273 276 278 281 286
158 158 157 157 156 155 154 154 155 155 155 156 158 158 157 156 154 153 153 152 151 152 153 153 153 153 153 154 155 155 155 153 150 148 147 147 149 151 153 154 154 154 152 147 143 145 151 155 157 158 162 173 183 187 216 263 287 290 279 270 266 263 264 269 272 275 277 282 285
155 155 155 155 154 154 153 154 154 154 155 156 157 157 156 154 154 153 152 151 152 153 154 154 154 154 154 154 155 155 154 151 149 148 148 149 151 153 154 154 156 156 156 154 154 158 161 156 156 163 177 202 202 204 224 259 281 283 274 270 267 267 269 272 274 277 280 283 286
153 153 153 153 153 153 153 153 154 153 153 153 154 154 154 154 153 152 151 151 153 153 154 153 153 153 153 154 155 154 152 150 149 149 149 151 152 153 154 155 156 157 158 159 161 162 159 154 159 168 182 209 216 222 237 258 272 273 270 268 268 270 274 277 278 280 282 285 287
152 152 152 153 153 153 152 152 152 152 151 151 151 152 152 152 152 152 152 152 152 152 153 153 152 152 153 154 155 154 152 150 150 150 150 150 152 153 154 155 155 156 160 164 166 166 161 159 167 183 202 220 226 228 236 250 262 267 269 268 270 273 277 279 281 283 284 286 287
151 151 152 152 152 152 152 151 151 150 150 149 149 150 150 151 151 151 151 151 151 151 152 152 152 152 153 154 154 153 151 150 149 149 149 150 151 153 154 155 156 159 164 171 173 169 164 166 176 190 207 220 226 228 234 246 259 267 271 272 274 276 279 282 284 285 286 287 289
150 151 151 151 152 151 151 150 149 148 147 147 148 148 149 149 150 151 150 149 149 149 150 150 151 153 153 154 153 152 151 149 148 148 148 150 151 153 154 156 158 162 168 178 176 162 157 171 184 197 210 223 230 236 243 252 261 269 273 277 278 280 283 286 287 287 287 288 288
150 150 150 151 151 151 149 147 146 145 145 145 146 147 147 147 148 149 148 148 148 148 148 149 151 153 153 153 153 151 150 148 147 147 148 149 151 153 154 156 159 164 169 180 173 150 150 174 191 208 222 233 240 246 252 258 265 270 274 278 281 284 285 287 288 288 288 289 289
149 149 150 150 150 149 147 145 144 143 143 144 145 145 145 145 146 147 147 147 147 147 147 148 149 151 152 152 151 150 148 146 146 146 146 148 150 152 153 155 158 162 167 175 166 149 154 177 200 219 234 244 252 256 261 264 267 271 274 278 280 283 285 287 287 287 288 288 290
148 149 150 150 149 147 145 144 143 142 142 143 144 144 143 143 145 146 146 146 147 147 147 148 148 149 149 149 148 147 145 143 143 144 144 146 148 150 151 152 155 158 161 163 164 173 190 208 225 240 251 257 263 266 268 270 272 275 276 278 281 283 284 285 286 286 286 288 289
147 149 150 149 147 145 144 143 142 142 142 142 143 143 143 143 145 146 146 147 147 147 147 148 148 148 146 146 145 143 141 141 141 141 142 144 145 147 149 151 156 158 155 153 163 182 208 232 249 260 265 269 270 270 272 274 275 278 279 280 280 282 283 283 283 284 285 287 289
148 149 149 148 145 144 143 142 141 141 141 141 142 142 143 144 145 145 146 147 147 147 147 148 148 147 146 144 142 140 139 139 139 140 141 143 145 146 149 154 158 155 145 145 161 184 208 230 246 259 266 269 270 272 275 277 278 279 280 281 280 281 282 282 281 282 284 287 289
148 149 148 145 143 142 142 141 140 140 141 141 141 142 143 144 145 145 145 146 148 148 148 147 147 146 145 143 140 138 136 136 137 139 141 144 146 148 152 156 154 139 130 136 157 189 217 239 252 261 267 270 273 275 277 278 279 280 280 281 282 282 282 281 280 281 282 285 288
148 148 145 143 142 141 140 140 139 140 140 141 141 141 142 143 144 144 144 145 147 149 148 146 145 144 142 141 139 137 136 138 138 142 146 149 150 150 150 149 135 119 114 125 150 201 240 259 269 271 274 275 277 278 278 279 279 280 281 282 282 283 283 282 282 282 283 284 286
147 145 142 141 140 139 138 138 139 139 139 139 139 140 140 141 142 142 143 144 146 147 146 145 143 142 141 140 139 139 140 142 144 147 151 153 151 149 144 133 120 112 107 114 159 252 269 276 279 280 280 280 280 279 279 279 279 280 281 282 283 284 285 284 284 284 285 286 286
143 141 139 138 138 137 137 137 137 137 137 137 138 138 138 139 140 141 142 143 143 143 142 141 141 141 141 141 142 143 145 147 149 151 152 150 147 142 132 118 114 113 115 127 235 274 285 290 290 288 287 286 285 284 282 282 281 281 282 283 284 285 286 287 287 287 287 288 288
139 137 137 136 136 136 135 135 135 135 134 134 135 136 137 137 138 139 140 140 139 139 138 138 139 140 141 143 145 146 147 148 149 149 147 141 135 125 113 105 109 115 126 152 232 250 276 297 301 300 297 295 293 291 289 288 286 285 285 285 285 287 287 288 289 289 289 290 290
136 135 135 135 135 134 134 134 133 132 132 133 134 135 136 136 137 137 137 136 136 137 137 137 138 139 141 142 144 145 144 143 142 141 137 129 118 106 99 101 114 131 165 234 268 271 269 284 304 309 309 306 302 300 297 295 292 289 287 287 287 288 289 289 290 290 290 291 292
135 135 134 134 133 133 133 133 132 132 132 133 134 134 134 135 135 135 135 134 135 136 136 137 137 138 139 140 141 141 140 138 136 133 126 118 106 99 102 118 131 168 237 292 319 327 323 314 313 313 313 310 307 303 301 297 294 291 289 288 288 289 290 290 291 291 292 293 294
134 133 133 133 133 132 132 132 132 131 132 132 133 133 133 134 134 134 134 133 134 135 136 136 137 138 138 139 139 138 136 134 131 127 121 114 109 110 121 139 156 208 283 321 335 341 345 340 324 312 309 308 307 304 301 298 294 292 289 287 287 287 289 290 291 293 294 295 296
132 131 131 131 131 131 131 131 131 131 131 131 132 132 133 134 134 134 133 133 133 134 135 135 136 137 138 138 136 134 133 132 130 128 124 121 121 127 139 153 165 221 293 325 337 349 349 335 316 308 307 307 305 302 300 297 295 292 289 287 286 286 287 290 292 295 297 298 299
131 130 130 130 129 129 129 130 129 130 130 131 131 132 133 133 133 132 133 133 133 134 134 134 137 138 138 136 135 134 134 133 132 130 126 123 124 134 148 158 172 231 293 325 340 349 345 325 310 306 307 307 304 301 297 295 294 292 290 288 287 287 288 290 293 295 297 299 301
130 130 129 128 128 128 128 128 128 129 130 130 131 131 131 131 131 131 132 132 132 131 132 134 137 137 136 135 136 136 135 133 129 125 120 119 127 141 152 162 180 243 298 330 344 348 339 323 312 308 307 307 304 301 297 294 293 292 291 289 288 288 290 292 293 295 297 298 300
130 130 129 128 127 127 127 128 128 129 129 129 130 129 129 129 129 129 129 129 129 131 133 136 136 135 135 136 137 136 133 129 123 117 118 131 148 161 166 170 185 254 305 333 344 346 336 323 315 310 309 309 306 301 296 293 291 291 289 288 288 288 290 292 293 294 295 297 299
130 129 128 127 126 126 127 128 128 128 128 128 128 127 127 127 127 127 127 128 130 133 136 136 135 135 136 136 135 132 127 122 117 117 125 145 161 172 180 185 198 257 304 330 340 342 336 325 318 313 311 310 307 302 297 293 291 289 288 287 287 288 290 292 293 293 294 296 298
129 128 127 126 125 126 127 127 127 127 127 126 126 126 125 125 125 126 129 131 133 134 134 134 135 136 136 133 130 126 123 121 122 126 134 146 161 181 193 196 199 255 297 324 336 340 337 330 322 316 313 312 309 303 297 293 291 289 287 287 287 288 290 292 293 293 294 295 297
129 127 126 125 125 126 126 127 126 126 125 125 125 124 124 125 127 129 130 131 132 131 132 133 134 133 132 128 125 124 126 128 130 130 128 126 136 181 212 208 208 266 295 320 333 338 337 332 325 319 316 314 311 305 299 295 293 291 289 288 288 289 291 292 293 293 294 295 295
127 126 125 125 125 125 126 126 126 125 124 123 123 125 126 128 129 129 129 130 130 130 131 133 133 132 130 127 128 132 136 136 133 128 119 109 108 235 245 235 236 277 297 316 329 336 337 334 327 322 319 318 314 307 302 298 295 293 291 290 290 291 293 293 294 294 294 295 295
126 125 124 125 125 125 126 125 125 125 124 123 124 126 128 129 130 131 131 133 134 135 136 137 137 135 133 132 133 137 142 144 144 139 131 117 294 283 277 271 258 282 298 312 324 333 337 335 330 325 323 321 315 309 304 301 298 296 294 293 293 294 294 295 295 295 295 296 297
126 126 125 125 125 125 125 125 125 124 123 123 124 126 128 130 132 135 137 138 138 139 139 138 137 133 131 131 132 137 143 150 154 159 165 340 316 304 298 294 281 288 298 308 319 328 334 336 332 328 326 322 316 311 307 304 301 299 297 296 296 296 296 297 297 297 298 300 304
127 126 126 125 125 125 125 125 124 123 123 124 126 128 130 132 135 138 139 139 139 137 135 132 128 126 127 132 138 142 143 146 153 167 202 294 315 314 310 305 299 294 297 305 314 323 331 335 333 330 326 322 318 314 309 306 304 302 301 300 299 299 299 300 300 301 304 309 312
127 127 126 125 125 124 124 124 124 123 124 126 128 131 134 136 137 137 138 136 134 131 128 126 126 129 134 139 145 145 142 136 144 169 210 272 303 310 312 310 306 299 297 301 309 319 328 333 331 329 326 322 319 315 312 308 306 304 303 302 302 301 302 304 306 308 311 313 313
126 126 126 125 124 124 124 123 124 124 126 129 131 134 136 137 136 135 134 132 128 126 126 128 134 138 138 138 144 149 150 142 344 320 290 281 299 310 317 318 310 305 301 302 308 317 325 329 328 327 326 323 320 316 313 311 308 306 304 304 304 305 306 309 313 314 313 312 310
125 125 125 124 124 123 123 123 124 127 130 132 133 135 136 137 136 134 133 130 126 125 128 133 139 138 132 134 148 158 171 210 293 313 313 305 304 315 324 325 315 309 307 307 311 316 321 324 324 325 326 324 321 318 315 312 309 306 306 307 309 311 313 315 316 315 313 310 309
123 123 123 122 122 123 123 124 127 131 134 135 136 137 138 138 137 135 132 128 127 127 130 134 136 134 129 134 149 166 180 199 240 287 304 311 309 314 320 319 312 311 314 316 317 318 320 321 322 324 326 326 323 320 316 313 310 308 309 311 315 317 318 318 316 313 311 310 309
Height
736 738 740 742 745 747 750 753 756 758 759 761 763 766 769 772 774 775 776 777 778 780 783 786 787 788 789 790 791 792 793 794 794 794 795 795 796 797 798 799 799 800 801 801 802 803 803 803 804 804 804 805 805 805 806 806 806 806 806 806 807 807 807 807 807 807 807 807 806
736 738 740 742 745 747 750 753 756 757 759 761 763 766 769 771 773 774 776 777 779 781 783 785 786 786 787 789 791 792 792 793 793 794 794 795 796 796 797 798 799 800 801 801 802 802 803 803 803 804 804 804 805 805 805 805 805 805 806 806 806 806 806 806 806 806 806 806 806
736 738 740 743 745 747 750 752 755 756 759 761 763 766 768 771 772 774 775 777 779 781 782 784 785 786 787 789 790 791 792 792 792 793 794 794 795 796 797 798 799 800 801 801 801 802 802 803 803 803 804 804 804 805 805 805 805 805 805 806 806 806 806 806 806 806 806 806 806
736 738 740 742 744 746 748 751 753 756 758 760 763 765 768 770 771 773 775 776 778 780 781 782 783 785 787 788 790 791 791 791 792 792 793 794 795 796 797 798 799 800 800 801 801 801 802 802 802 803 803 804 804 804 804 804 804 805 805 805 805 806 806 806 806 805 805 805 805
736 738 740 742 744 746 748 750 752 755 757 759 762 765 767 769 771 772 774 776 778 779 780 781 782 784 786 788 789 790 791 791 791 792 793 793 795 796 797 798 799 799 800 800 801 801 801 802 802 802 803 803 803 803 803 804 804 804 804 805 805 805 805 805 805 805 805 804 804
736 738 740 742 744 746 748 750 752 754 756 758 761 764 766 768 770 771 773 775 777 778 779 781 782 784 786 787 788 789 790 791 791 791 792 793 794 796 797 797 798 799 799 800 800 801 801 801 802 802 802 802 802 803 803 803 803 804 804 804 804 804 804 804 804 804 804 803 803
735 737 740 742 744 746 748 750 752 754 756 758 761 763 765 767 769 771 772 774 776 777 779 780 782 784 785 787 788 789 789 790 791 791 792 793 794 795 796 797 798 798 799 799 800 800 801 801 801 801 801 802 802 802 802 802 803 803 803 804 804 804 804 804 803 803 803 803 802
735 737 739 741 743 746 747 750 752 754 756 758 761 763 765 767 768 770 771 773 775 776 778 780 782 783 785 786 787 788 789 789 790 791 792 793 794 795 796 797 798 798 799 799 800 800 800 801 801 801 801 801 801 802 802 802 802 803 803 803 803 803 803 803 803 802 802 802 802
736 738 740 741 743 746 747 749 751 753 756 758 761 763 765 766 768 770 771 772 774 776 777 780 781 783 785 786 787 788 788 789 790 791 791 792 794 795 796 796 797 798 799 799 799 800 800 800 800 801 801 801 801 801 801 801 802 802 802 802 803 802 802 802 802 802 801 801 801
735 737 740 742 744 746 748 750 751 753 755 758 760 762 764 766 767 769 770 771 773 775 778 780 781 783 785 786 787 787 788 789 789 790 791 792 793 795 796 796 797 798 798 799 799 799 800 800 800 800 800 800 801 801 801 801 801 802 802 802 802 802 801 801 801 801 801 801 800
735 737 739 741 744 746 748 750 751 754 756 757 760 762 764 766 767 768 769 771 773 776 778 780 781 783 785 786 786 787 788 788 789 790 791 792 793 794 795 796 797 797 798 798 799 799 799 799 800 800 800 800 800 801 801 801 801 801 801 801 801 801 801 801 801 800 800 800 799
735 737 739 741 743 746 747 749 751 754 755 757 759 761 764 765 766 768 769 771 774 776 778 780 781 783 784 785 786 787 787 788 789 790 791 792 793 794 795 796 797 797 798 798 798 798 798 799 799 799 799 800 800 800 800 801 801 801 801 801 801 800 800 800 800 800 799 799 799
735 737 739 741 743 746 747 749 751 753 755 756 759 761 763 765 766 768 770 772 774 776 778 780 782 783 784 785 786 786 787 788 789 790 791 792 793 794 795 796 796 797 797 797 797 798 798 798 798 799 799 799 800 800 800 800 800 800 800 800 800 800 799 799 799 799 798 798 798
735 737 739 741 743 746 747 749 751 752 754 756 759 761 763 765 766 768 771 773 775 777 779 780 782 783 784 785 786 786 787 788 789 790 791 792 793 794 795 796 796 796 797 797 797 797 797 798 798 798 799 799 799 799 799 799 799 799 799 799 799 799 799 798 798 798 797 797 797
736 738 740 741 743 745 747 749 750 752 754 756 759 761 763 765 767 769 771 773 775 777 778 780 781 783 784 785 786 786 787 788 789 790 791 792 793 794 795 795 796 796 796 796 797 797 797 797 798 798 798 798 799 799 799 799 799 799 798 798 798 798 798 797 797 797 797 796 796
736 738 740 742 743 745 747 748 750 752 755 756 759 761 763 765 767 770 771 773 775 777 778 780 781 782 783 785 786 786 787 788 789 791 791 792 793 794 794 795 795 796 796 796 796 796 797 797 797 797 798 798 798 798 798 798 798 798 798 797 797 797 797 796 796 796 796 795 795
736 738 740 742 743 745 746 748 750 752 755 756 759 761 763 766 768 770 772 774 775 777 778 780 781 782 783 784 786 786 787 788 789 791 791 792 793 794 794 795 795 795 796 796 796 796 796 797 797 797 797 797 797 797 797 797 797 797 797 797 796 796 796 796 796 795 795 794 794
736 739 741 742 743 745 746 748 750 752 755 757 759 761 764 766 768 770 772 774 775 777 778 780 781 782 783 784 785 786 787 788 790 791 791 792 793 793 794 794 795 795 795 796 796 796 796 796 796 796 796 796 796 796 796 796 796 796 796 796 796 796 795 795 795 794 794 793 793
737 739 741 742 744 745 747 748 750 752 755 757 759 762 764 766 768 770 772 774 776 777 778 779 781 782 783 784 785 786 787 788 790 791 791 792 792 793 794 794 794 795 795 795 796 796 796 796 796 796 796 796 796 796 796 796 796 796 795 795 795 795 794 794 793 793 793 792 792
737 739 741 742 744 745 747 749 751 753 755 758 760 762 765 767 769 771 772 774 776 777 778 779 781 782 783 784 785 786 787 788 789 790 791 791 792 793 793 794 794 794 795 795 795 796 796 796 796 796 796 796 796 796 795 795 795 795 795 794 794 794 793 793 792 792 791 791 791
738 740 741 742 744 746 747 749 751 753 756 758 761 763 765 767 770 771 773 774 776 777 778 780 781 782 783 784 785 786 787 788 789 790 791 791 792 792 793 793 794 794 794 795 795 795 795 795 795 795 795 795 795 795 795 794 794 794 794 793 793 792 792 792 791 791 790 790 789
738 740 741 742 744 746 748 750 752 754 756 759 761 764 766 768 770 772 773 775 776 777 779 780 781 782 783 784 785 786 787 788 789 790 790 791 791 792 792 793 793 794 794 795 795 795 795 795 795 795 795 795 794 794 794 794 793 793 793 792 792 791 791 791 790 790 789 789 788
738 739 741 743 745 746 748 750 752 755 757 760 762 764 766 769 771 772 774 775 776 778 779 780 781 782 783 784 785 786 787 788 789 790 790 791 791 792 792 793 793 794 794 794 794 794 794 794 794 794 794 794 794 794 793 793 792 792 791 791 791 790 790 790 789 789 788 787 787
737 739 741 743 745 747 749 751 753 756 758 761 763 765 767 769 771 773 774 776 777 778 779 780 781 782 783 784 785 786 787 788 789 789 790 791 791 791 792 792 793 794 794 794 794 793 793 793 794 794 794 793 793 793 792 792 792 791 791 790 790 789 789 788 788 787 787 786 786
737 739 741 743 746 747 749 751 754 756 759 761 763 766 768 770 771 773 775 776 777 778 779 780 781 782 783 784 785 786 787 788 788 789 790 791 791 791 792 793 793 793 793 793 793 793 793 793 793 793 793 793 792 792 791 791 791 790 790 789 789 788 787 787 786 786 786 785 785
738 740 742 744 746 748 750 752 754 756 759 761 764 766 768 770 772 773 775 776 777 778 779 780 781 782 783 784 785 786 787 788 788 789 790 790 791 791 792 793 793 793 793 792 792 792 792 792 792 792 792 792 791 791 791 790 790 789 789 788 787 787 786 786 785 785 785 784 784
739 741 743 745 747 749 751 753 755 757 760 762 764 766 768 770 772 774 775 776 777 778 779 780 781 782 783 784 785 786 787 787 788 789 790 790 791 791 792 793 793 792 792 792 792 792 792 792 792 791 791 791 791 790 790 789 789 788 787 787 786 786 785 785 784 784 783 783 783
739 741 743 746 748 750 752 754 756 758 761 762 765 767 769 771 772 774 775 776 777 778 779 781 781 782 783 784 785 786 787 787 788 789 790 790 791 791 792 792 792 792 792 792 791 791 791 791 791 791 791 790 790 789 789 788 787 787 786 786 785 785 784 784 783 783 782 782 781
740 742 744 746 749 751 753 756 757 759 761 763 765 767 769 771 772 774 775 776 777 779 780 781 782 783 784 784 785 786 787 787 788 789 790 790 791 791 792 792 792 792 791 791 791 791 791 791 790 790 790 790 789 788 788 787 786 786 785 785 784 784 783 783 782 782 781 781 781
741 743 745 747 750 752 755 756 758 760 762 764 766 768 770 771 773 774 776 777 778 779 780 781 782 783 784 785 785 786 787 787 788 789 790 790 791 791 791 792 791 791 791 791 791 790 790 790 790 789 789 789 788 787 787 786 786 785 784 784 783 782 782 781 781 781 781 780 780
742 744 746 748 751 753 756 757 759 761 762 765 766 768 770 772 773 775 776 777 778 779 780 781 782 783 784 785 785 786 787 787 788 789 790 790 791 791 791 791 791 791 790 790 790 790 789 789 789 788 788 788 787 786 786 785 785 784 783 782 782 781 781 781 780 780 780 779 779
744 745 747 749 751 754 756 758 760 762 763 765 767 769 771 772 774 775 776 777 778 780 781 781 782 783 784 785 786 786 787 788 788 789 789 790 790 791 791 791 791 790 790 789 789 789 789 788 788 788 787 787 786 785 785 784 783 783 782 781 781 781 780 780 779 779 778 778 778
745 746 748 750 752 755 757 759 761 763 764 766 768 769 771 772 774 775 776 778 779 780 781 782 783 783 784 785 786 786 787 788 788 789 789 789 790 790 790 791 791 790 789 789 789 788 788 787 787 787 786 786 785 784 783 783 782 781 781 780 780 779 779 779 778 778 777 777 777
746 747 749 751 753 756 758 760 762 763 765 766 768 770 771 773 774 776 777 778 780 781 781 782 783 784 785 785 786 787 787 788 788 788 789 789 789 790 790 790 790 789 788 788 788 787 787 787 786 786 785 785 784 783 782 782 781 781 780 779 779 778 778 778 777 777 776 776 776
746 748 750 753 755 757 759 761 762 764 766 767 769 771 772 773 775 776 777 779 780 781 781 782 783 784 785 786 786 787 787 788 788 788 789 789 789 789 790 790 789 788 787 787 787 787 786 786 785 785 784 783 783 782 781 781 780 780 779 778 778 777 777 777 776 776 776 775 775
748 749 751 754 756 758 760 761 763 764 766 768 769 771 773 774 776 777 778 779 780 781 782 782 783 784 785 786 786 787 787 788 788 788 788 789 789 789 789 789 789 788 787 786 786 786 786 785 784 784 783 782 782 781 781 780 779 779 778 777 777 776 776 776 775 775 775 774 774
750 751 753 755 757 759 760 762 763 765 767 768 770 772 773 775 776 777 778 779 780 781 782 783 784 784 785 786 786 787 787 787 788 788 788 788 788 788 788 788 788 788 787 786 786 785 785 784 784 783 782 782 781 781 780 779 779 778 777 776 776 776 775 775 774 774 774 773 773
751 753 754 756 757 759 761 762 764 766 767 769 771 772 774 775 776 778 779 780 781 781 782 783 784 785 785 786 786 786 787 787 787 788 788 788 788 788 788 787 787 787 786 786 785 784 784 783 783 782 782 781 781 780 779 779 778 777 776 776 775 775 774 774 774 773 773 772 772
752 754 755 757 758 760 761 763 765 766 768 770 771 773 774 776 777 778 779 780 781 782 783 783 784 785 785 786 786 786 786 787 787 787 787 787 787 787 787 786 786 786 786 785 784 784 783 783 782 782 781 781 780 780 779 778 777 776 776 775 775 774 774 773 773 772 772 771 771
754 755 756 758 759 761 762 764 766 767 769 771 772 774 775 776 777 778 780 781 781 782 783 784 784 785 785 786 786 786 786 787 787 787 787 787 786 786 786 786 786 786 785 785 784 783 783 782 782 781 781 780 780 779 778 777 777 776 775 775 774 773 773 773 772 772 771 771 770
755 756 758 759 761 762 763 765 767 768 770 771 773 774 776 776 778 779 780 781 782 782 783 784 784 785 785 786 786 786 786 786 786 786 786 786 786 786 785 785 785 785 785 784 783 783 782 782 781 781 781 780 779 778 778 777 776 776 775 774 774 773 773 772 772 771 771 770 769